Time,TemperatureF,DewpointF,PressureIn,WindDirection,WindDirectionDegrees,WindSpeedMPH,WindSpeedGustMPH,Humidity,HourlyPrecipIn,Conditions,Clouds,dailyrainin,SoftwareType,DateUTC
2013-08-07 00:05:00,67.6,67.0,30.09,South,169,0.0,5.0,98,0.00,,,0.00,Wunderground v.1.15,2013-08-07 04:05:00,
2013-08-07 00:10:00,67.6,67.0,30.08,SW,221,0.0,5.0,98,0.00,,,0.00,Wunderground v.1.15,2013-08-07 04:10:00,
2013-08-07 00:15:00,67.6,67.0,30.08,SW,222,1.0,5.0,98,0.00,,,0.00,Wunderground v.1.15,2013-08-07 04:15:00,
2013-08-07 00:20:00,67.6,67.0,30.09,SW,234,0.0,5.0,98,0.00,,,0.00,Wunderground v.1.15,2013-08-07 04:20:00,
2013-08-07 00:25:00,67.6,67.0,30.09,SW,234,0.0,5.0,98,0.00,,,0.00,Wunderground v.1.15,2013-08-07 04:25:00,
2013-08-07 00:30:00,67.6,67.0,30.09,SW,234,0.0,5.0,98,0.00,,,0.00,Wunderground v.1.15,2013-08-07 04:30:00,
2013-08-07 00:35:00,67.6,67.0,30.09,SSW,203,0.0,5.0,98,0.00,,,0.00,Wunderground v.1.15,2013-08-07 04:35:00,
2013-08-07 00:40:00,67.6,67.0,30.09,SSW,203,0.0,5.0,98,0.00,,,0.00,Wunderground v.1.15,2013-08-07 04:40:00,
2013-08-07 00:45:00,67.6,67.0,30.09,SSW,203,0.0,5.0,98,0.00,,,0.00,Wunderground v.1.15,2013-08-07 04:45:00,
2013-08-07 00:50:00,67.5,66.9,30.09,SW,223,0.0,5.0,98,0.00,,,0.00,Wunderground v.1.15,2013-08-07 04:50:00,
2013-08-07 00:55:00,67.5,66.9,30.09,SW,223,0.0,5.0,98,0.00,,,0.00,Wunderground v.1.15,2013-08-07 04:55:00,
2013-08-07 01:05:00,67.4,66.8,30.09,South,185,1.0,1.0,98,0.00,,,0.00,Wunderground v.1.15,2013-08-07 05:05:00,
2013-08-07 01:10:00,67.4,66.8,30.09,South,185,0.0,5.0,98,0.00,,,0.00,Wunderground v.1.15,2013-08-07 05:10:00,
2013-08-07 01:20:00,67.4,66.8,30.08,South,190,0.0,5.0,98,0.00,,,0.00,Wunderground v.1.15,2013-08-07 05:20:00,
2013-08-07 01:25:00,67.4,66.8,30.08,SSW,195,1.0,1.0,98,0.00,,,0.00,Wunderground v.1.15,2013-08-07 05:25:00,
2013-08-07 01:30:00,67.4,66.8,30.08,SSW,195,0.0,5.0,98,0.00,,,0.00,Wunderground v.1.15,2013-08-07 05:30:00,
2013-08-07 01:35:00,67.3,66.7,30.08,SW,229,1.0,1.0,98,0.00,,,0.00,Wunderground v.1.15,2013-08-07 05:35:00,
2013-08-07 01:40:00,67.3,66.7,30.08,South,180,1.0,5.0,98,0.00,,,0.00,Wunderground v.1.15,2013-08-07 05:40:00,
2013-08-07 01:45:00,67.3,66.7,30.08,South,173,1.0,5.0,98,0.00,,,0.00,Wunderground v.1.15,2013-08-07 05:45:00,
2013-08-07 01:50:00,67.2,66.6,30.08,South,172,1.0,5.0,98,0.00,,,0.00,Wunderground v.1.15,2013-08-07 05:50:00,
2013-08-07 02:05:00,67.2,66.6,30.07,South,173,1.0,1.0,98,0.00,,,0.00,Wunderground v.1.15,2013-08-07 06:05:00,
2013-08-07 02:10:00,67.1,66.5,30.07,South,173,0.0,5.0,98,0.00,,,0.00,Wunderground v.1.15,2013-08-07 06:10:00,
2013-08-07 02:20:00,67.1,66.5,30.07,South,169,0.0,5.0,98,0.00,,,0.00,Wunderground v.1.15,2013-08-07 06:20:00,
2013-08-07 02:25:00,67.0,66.4,30.07,SSE,157,1.0,1.0,98,0.00,,,0.00,Wunderground v.1.15,2013-08-07 06:25:00,
2013-08-07 02:30:00,67.0,66.4,30.07,SSE,157,1.0,5.0,98,0.00,,,0.00,Wunderground v.1.15,2013-08-07 06:30:00,
2013-08-07 02:35:00,66.9,66.3,30.07,South,191,0.0,5.0,98,0.00,,,0.00,Wunderground v.1.15,2013-08-07 06:35:00,
2013-08-07 02:45:00,66.9,66.3,30.06,SSE,151,0.0,5.0,98,0.00,,,0.00,Wunderground v.1.15,2013-08-07 06:45:00,
2013-08-07 02:50:00,67.0,66.4,30.06,SE,138,1.0,5.0,98,0.00,,,0.00,Wunderground v.1.15,2013-08-07 06:50:00,
2013-08-07 02:55:00,67.0,66.4,30.06,NNE,23,0.0,5.0,98,0.00,,,0.00,Wunderground v.1.15,2013-08-07 06:55:00,
2013-08-07 03:05:00,67.2,66.6,30.07,ESE,107,0.0,5.0,98,0.00,,,0.00,Wunderground v.1.15,2013-08-07 07:05:00,
2013-08-07 03:10:00,67.1,66.5,30.07,ESE,107,0.0,5.0,98,0.00,,,0.00,Wunderground v.1.15,2013-08-07 07:10:00,
2013-08-07 03:15:00,67.1,66.5,30.06,ESE,102,0.0,5.0,98,0.00,,,0.00,Wunderground v.1.15,2013-08-07 07:15:00,
2013-08-07 03:20:00,67.1,66.5,30.06,NNW,346,0.0,5.0,98,0.00,,,0.00,Wunderground v.1.15,2013-08-07 07:20:00,
2013-08-07 03:25:00,67.1,66.8,30.06,North,349,1.0,1.0,99,0.00,,,0.00,Wunderground v.1.15,2013-08-07 07:25:00,
2013-08-07 03:30:00,67.1,66.8,30.06,East,98,1.0,5.0,99,0.00,,,0.00,Wunderground v.1.15,2013-08-07 07:30:00,
2013-08-07 03:35:00,67.1,66.8,30.06,East,98,0.0,5.0,99,0.00,,,0.00,Wunderground v.1.15,2013-08-07 07:35:00,
2013-08-07 03:40:00,67.1,66.8,30.06,East,98,0.0,5.0,99,0.00,,,0.00,Wunderground v.1.15,2013-08-07 07:40:00,
2013-08-07 03:45:00,67.0,66.7,30.06,SE,126,0.0,5.0,99,0.00,,,0.00,Wunderground v.1.15,2013-08-07 07:45:00,
2013-08-07 03:50:00,67.0,66.7,30.06,South,179,0.0,5.0,99,0.00,,,0.00,Wunderground v.1.15,2013-08-07 07:50:00,
2013-08-07 03:55:00,67.0,66.7,30.06,SSE,160,0.0,5.0,99,0.00,,,0.00,Wunderground v.1.15,2013-08-07 07:55:00,
2013-08-07 04:05:00,67.0,66.7,30.06,SE,128,0.0,5.0,99,0.00,,,0.00,Wunderground v.1.15,2013-08-07 08:05:00,
2013-08-07 04:10:00,67.0,66.7,30.06,SSW,196,0.0,5.0,99,0.00,,,0.00,Wunderground v.1.15,2013-08-07 08:10:00,
2013-08-07 04:15:00,67.0,66.7,30.06,SSW,192,0.0,5.0,99,0.00,,,0.00,Wunderground v.1.15,2013-08-07 08:15:00,
2013-08-07 04:25:00,66.9,66.6,30.06,SSW,199,0.0,5.0,99,0.00,,,0.00,Wunderground v.1.15,2013-08-07 08:25:00,
2013-08-07 04:30:00,66.9,66.6,30.07,SSW,209,0.0,5.0,99,0.00,,,0.00,Wunderground v.1.15,2013-08-07 08:30:00,
2013-08-07 04:35:00,66.9,66.6,30.07,SSW,205,1.0,5.0,99,0.00,,,0.00,Wunderground v.1.15,2013-08-07 08:35:00,
2013-08-07 04:40:00,66.9,66.6,30.06,SSW,205,1.0,5.0,99,0.00,,,0.00,Wunderground v.1.15,2013-08-07 08:40:00,
2013-08-07 04:45:00,66.9,66.6,30.06,SSW,205,0.0,5.0,99,0.00,,,0.00,Wunderground v.1.15,2013-08-07 08:45:00,
2013-08-07 04:50:00,66.9,66.6,30.07,SSW,205,0.0,5.0,99,0.00,,,0.00,Wunderground v.1.15,2013-08-07 08:50:00,
2013-08-07 04:55:00,66.9,66.6,30.07,South,186,0.0,5.0,99,0.00,,,0.00,Wunderground v.1.15,2013-08-07 08:55:00,
2013-08-07 05:05:00,66.9,66.6,30.07,South,186,0.0,5.0,99,0.00,,,0.00,Wunderground v.1.15,2013-08-07 09:05:00,
2013-08-07 05:10:00,66.9,66.6,30.07,SSE,158,1.0,5.0,99,0.00,,,0.00,Wunderground v.1.15,2013-08-07 09:10:00,
2013-08-07 05:15:00,66.9,66.6,30.07,SSW,193,1.0,1.0,99,0.00,,,0.00,Wunderground v.1.15,2013-08-07 09:15:00,
2013-08-07 05:20:00,66.8,66.5,30.07,SSE,164,1.0,5.0,99,0.00,,,0.00,Wunderground v.1.15,2013-08-07 09:20:00,
2013-08-07 05:25:00,66.8,66.5,30.07,SSE,164,1.0,1.0,99,0.00,,,0.00,Wunderground v.1.15,2013-08-07 09:25:00,
2013-08-07 05:30:00,66.8,66.5,30.07,SSE,164,0.0,5.0,99,0.00,,,0.00,Wunderground v.1.15,2013-08-07 09:30:00,
2013-08-07 05:35:00,66.8,66.5,30.07,SSE,164,0.0,5.0,99,0.00,,,0.00,Wunderground v.1.15,2013-08-07 09:35:00,
2013-08-07 05:40:00,66.8,66.5,30.07,SSE,164,0.0,5.0,99,0.00,,,0.00,Wunderground v.1.15,2013-08-07 09:40:00,
2013-08-07 05:45:00,66.8,66.5,30.07,SSE,164,0.0,5.0,99,0.00,,,0.00,Wunderground v.1.15,2013-08-07 09:45:00,
2013-08-07 05:50:00,66.7,66.4,30.07,SSE,164,0.0,5.0,99,0.00,,,0.00,Wunderground v.1.15,2013-08-07 09:50:00,
2013-08-07 05:55:00,66.7,66.4,30.07,SSE,164,0.0,5.0,99,0.00,,,0.00,Wunderground v.1.15,2013-08-07 09:55:00,
2013-08-07 06:05:00,66.7,66.4,30.07,SSE,158,0.0,5.0,99,0.00,,,0.00,Wunderground v.1.15,2013-08-07 10:05:00,
2013-08-07 06:15:00,66.7,66.4,30.07,SSE,158,0.0,5.0,99,0.00,,,0.00,Wunderground v.1.15,2013-08-07 10:15:00,
2013-08-07 06:20:00,66.7,66.4,30.07,SSE,157,0.0,5.0,99,0.00,,,0.00,Wunderground v.1.15,2013-08-07 10:20:00,
2013-08-07 06:30:00,66.7,66.4,30.07,SSE,157,0.0,5.0,99,0.00,,,0.00,Wunderground v.1.15,2013-08-07 10:30:00,
2013-08-07 06:35:00,66.7,66.4,30.08,SSE,157,0.0,5.0,99,0.00,,,0.00,Wunderground v.1.15,2013-08-07 10:35:00,
2013-08-07 06:40:00,66.7,66.4,30.08,SSE,157,0.0,5.0,99,0.00,,,0.00,Wunderground v.1.15,2013-08-07 10:40:00,
2013-08-07 06:45:00,66.8,66.5,30.07,SSE,157,0.0,5.0,99,0.00,,,0.00,Wunderground v.1.15,2013-08-07 10:45:00,
2013-08-07 06:50:00,66.8,66.5,30.08,SSE,157,0.0,5.0,99,0.00,,,0.00,Wunderground v.1.15,2013-08-07 10:50:00,
2013-08-07 06:55:00,66.8,66.5,30.08,SSE,153,0.0,5.0,99,0.00,,,0.00,Wunderground v.1.15,2013-08-07 10:55:00,
2013-08-07 07:05:00,66.8,66.5,30.08,SSW,209,0.0,5.0,99,0.00,,,0.00,Wunderground v.1.15,2013-08-07 11:05:00,
2013-08-07 07:10:00,66.9,66.6,30.08,South,182,0.0,5.0,99,0.00,,,0.00,Wunderground v.1.15,2013-08-07 11:10:00,
2013-08-07 07:15:00,66.9,66.6,30.07,SSE,168,0.0,5.0,99,0.00,,,0.00,Wunderground v.1.15,2013-08-07 11:15:00,
2013-08-07 07:20:00,66.9,66.6,30.08,SW,235,1.0,5.0,99,0.00,,,0.00,Wunderground v.1.15,2013-08-07 11:20:00,
2013-08-07 07:25:00,66.9,66.6,30.08,SSE,166,1.0,1.0,99,0.00,,,0.00,Wunderground v.1.15,2013-08-07 11:25:00,
2013-08-07 07:30:00,67.0,66.7,30.08,SSE,165,1.0,5.0,99,0.00,,,0.00,Wunderground v.1.15,2013-08-07 11:30:00,
2013-08-07 07:35:00,67.0,66.7,30.08,SSE,165,0.0,5.0,99,0.00,,,0.00,Wunderground v.1.15,2013-08-07 11:35:00,
2013-08-07 07:40:00,67.0,66.7,30.09,SSE,165,0.0,5.0,99,0.00,,,0.00,Wunderground v.1.15,2013-08-07 11:40:00,
2013-08-07 07:45:00,67.1,66.8,30.09,SSE,165,0.0,5.0,99,0.00,,,0.00,Wunderground v.1.15,2013-08-07 11:45:00,
2013-08-07 07:50:00,67.1,66.8,30.09,SSE,165,0.0,5.0,99,0.00,,,0.00,Wunderground v.1.15,2013-08-07 11:50:00,
2013-08-07 07:55:00,67.1,66.8,30.09,SSE,163,0.0,5.0,99,0.00,,,0.00,Wunderground v.1.15,2013-08-07 11:55:00,
2013-08-07 08:05:00,67.1,66.8,30.09,SSE,163,0.0,5.0,99,0.00,,,0.00,Wunderground v.1.15,2013-08-07 12:05:00,
2013-08-07 08:10:00,67.1,66.8,30.09,SSE,163,0.0,5.0,99,0.00,,,0.00,Wunderground v.1.15,2013-08-07 12:10:00,
2013-08-07 08:15:00,67.2,66.9,30.10,SSE,163,0.0,5.0,99,0.00,,,0.00,Wunderground v.1.15,2013-08-07 12:15:00,
2013-08-07 08:20:00,67.2,66.9,30.09,SSE,163,0.0,5.0,99,0.00,,,0.00,Wunderground v.1.15,2013-08-07 12:20:00,
2013-08-07 08:25:00,67.2,66.9,30.10,SSE,163,0.0,5.0,99,0.00,,,0.00,Wunderground v.1.15,2013-08-07 12:25:00,
2013-08-07 08:30:00,67.3,67.0,30.09,SSE,163,0.0,5.0,99,0.00,,,0.00,Wunderground v.1.15,2013-08-07 12:30:00,
2013-08-07 08:35:00,67.4,67.1,30.10,SSE,163,0.0,5.0,99,0.00,,,0.00,Wunderground v.1.15,2013-08-07 12:35:00,
2013-08-07 08:40:00,67.4,67.1,30.10,SSE,163,0.0,5.0,99,0.00,,,0.00,Wunderground v.1.15,2013-08-07 12:40:00,
2013-08-07 08:45:00,67.5,67.2,30.10,SSE,163,0.0,5.0,99,0.00,,,0.00,Wunderground v.1.15,2013-08-07 12:45:00,
2013-08-07 08:50:00,67.5,67.2,30.10,SSE,163,0.0,5.0,99,0.00,,,0.00,Wunderground v.1.15,2013-08-07 12:50:00,
2013-08-07 08:55:00,67.6,67.3,30.10,SSE,163,0.0,5.0,99,0.00,,,0.00,Wunderground v.1.15,2013-08-07 12:55:00,
2013-08-07 09:05:00,67.7,67.4,30.10,SSE,163,0.0,5.0,99,0.00,,,0.00,Wunderground v.1.15,2013-08-07 13:05:00,
2013-08-07 09:10:00,67.7,67.4,30.10,SSE,163,0.0,5.0,99,0.00,,,0.00,Wunderground v.1.15,2013-08-07 13:10:00,
2013-08-07 09:15:00,67.8,67.5,30.10,SSE,163,0.0,5.0,99,0.00,,,0.00,Wunderground v.1.15,2013-08-07 13:15:00,
2013-08-07 09:20:00,67.9,67.6,30.09,SSE,163,0.0,5.0,99,0.00,,,0.00,Wunderground v.1.15,2013-08-07 13:20:00,
2013-08-07 09:25:00,67.9,67.6,30.09,SSE,163,0.0,5.0,99,0.00,,,0.00,Wunderground v.1.15,2013-08-07 13:25:00,
2013-08-07 09:30:00,67.9,67.6,30.09,SSE,163,0.0,5.0,99,0.00,,,0.00,Wunderground v.1.15,2013-08-07 13:30:00,
2013-08-07 09:35:00,67.9,67.6,30.09,SSE,163,0.0,5.0,99,0.00,,,0.00,Wunderground v.1.15,2013-08-07 13:35:00,
2013-08-07 09:40:00,67.9,67.6,30.09,SSE,163,0.0,5.0,99,0.00,,,0.00,Wunderground v.1.15,2013-08-07 13:40:00,
2013-08-07 09:45:00,67.9,67.6,30.09,SSE,163,0.0,5.0,99,0.00,,,0.00,Wunderground v.1.15,2013-08-07 13:45:00,
2013-08-07 09:50:00,67.9,67.6,30.10,SSE,163,0.0,5.0,99,0.00,,,0.00,Wunderground v.1.15,2013-08-07 13:50:00,
2013-08-07 09:55:00,68.0,67.7,30.10,SSE,163,0.0,5.0,99,0.00,,,0.00,Wunderground v.1.15,2013-08-07 13:55:00,
2013-08-07 10:05:00,68.1,67.8,30.10,WSW,238,1.0,1.0,99,0.00,,,0.00,Wunderground v.1.15,2013-08-07 14:05:00,
2013-08-07 10:10:00,68.1,67.8,30.10,WSW,238,0.0,5.0,99,0.00,,,0.00,Wunderground v.1.15,2013-08-07 14:10:00,
2013-08-07 10:15:00,68.1,67.8,30.10,WSW,238,0.0,5.0,99,0.00,,,0.00,Wunderground v.1.15,2013-08-07 14:15:00,
2013-08-07 10:20:00,68.1,67.8,30.10,WSW,238,0.0,5.0,99,0.00,,,0.00,Wunderground v.1.15,2013-08-07 14:20:00,
2013-08-07 10:25:00,68.2,67.9,30.10,WSW,238,0.0,5.0,99,0.00,,,0.00,Wunderground v.1.15,2013-08-07 14:25:00,
2013-08-07 10:30:00,68.3,68.0,30.10,WSW,238,0.0,5.0,99,0.00,,,0.00,Wunderground v.1.15,2013-08-07 14:30:00,
2013-08-07 10:35:00,68.4,68.1,30.10,WSW,238,0.0,5.0,99,0.00,,,0.01,Wunderground v.1.15,2013-08-07 14:35:00,
2013-08-07 10:40:00,68.5,68.2,30.10,WSW,238,0.0,5.0,99,0.00,,,0.01,Wunderground v.1.15,2013-08-07 14:40:00,
2013-08-07 10:50:00,68.5,68.2,30.11,WSW,238,0.0,5.0,99,0.04,,,0.02,Wunderground v.1.15,2013-08-07 14:50:00,
2013-08-07 10:55:00,68.5,68.2,30.11,WSW,238,0.0,5.0,99,0.23,,,0.05,Wunderground v.1.15,2013-08-07 14:55:00,
2013-08-07 11:05:00,68.5,68.2,30.11,South,174,0.0,5.0,99,0.08,,,0.06,Wunderground v.1.15,2013-08-07 15:05:00,
2013-08-07 11:10:00,68.4,68.1,30.11,South,173,0.0,5.0,99,0.08,,,0.07,Wunderground v.1.15,2013-08-07 15:10:00,
2013-08-07 11:15:00,68.4,68.1,30.12,South,173,0.0,5.0,99,0.08,,,0.07,Wunderground v.1.15,2013-08-07 15:15:00,
2013-08-07 11:20:00,68.4,68.1,30.12,SSW,206,0.0,5.0,99,0.05,,,0.07,Wunderground v.1.15,2013-08-07 15:20:00,
2013-08-07 11:25:00,68.3,68.0,30.12,WSW,240,0.0,5.0,99,1.70,,,0.11,Wunderground v.1.15,2013-08-07 15:25:00,
2013-08-07 11:35:00,68.0,67.7,30.12,SSW,196,1.0,1.0,99,0.34,,,0.25,Wunderground v.1.15,2013-08-07 15:35:00,
2013-08-07 11:40:00,68.0,67.7,30.12,SSW,196,0.0,5.0,99,0.19,,,0.26,Wunderground v.1.15,2013-08-07 15:40:00,
2013-08-07 11:45:00,67.9,67.6,30.12,SSW,198,0.0,5.0,99,0.28,,,0.29,Wunderground v.1.15,2013-08-07 15:45:00,
2013-08-07 11:50:00,67.8,67.5,30.12,SSW,212,0.0,5.0,99,0.77,,,0.35,Wunderground v.1.15,2013-08-07 15:50:00,
2013-08-07 11:55:00,67.7,67.4,30.12,SW,215,0.0,5.0,99,0.92,,,0.42,Wunderground v.1.15,2013-08-07 15:55:00,
2013-08-07 12:05:00,67.6,67.3,30.12,SSW,207,1.0,1.0,99,0.38,,,0.51,Wunderground v.1.15,2013-08-07 16:05:00,
2013-08-07 12:10:00,67.5,67.2,30.12,SSW,207,0.0,5.0,99,0.19,,,0.53,Wunderground v.1.15,2013-08-07 16:10:00,
2013-08-07 12:15:00,67.5,67.2,30.12,SSE,165,0.0,5.0,99,0.13,,,0.54,Wunderground v.1.15,2013-08-07 16:15:00,
2013-08-07 12:25:00,67.8,67.5,30.12,SSE,157,0.0,5.0,99,0.07,,,0.55,Wunderground v.1.15,2013-08-07 16:25:00,
2013-08-07 12:30:00,68.1,67.8,30.12,SSE,157,0.0,5.0,99,0.04,,,0.55,Wunderground v.1.15,2013-08-07 16:30:00,
2013-08-07 12:35:00,68.3,68.0,30.11,SSE,157,0.0,5.0,99,0.00,,,0.55,Wunderground v.1.15,2013-08-07 16:35:00,
2013-08-07 12:40:00,68.3,68.0,30.12,East,94,0.0,5.0,99,0.00,,,0.55,Wunderground v.1.15,2013-08-07 16:40:00,
2013-08-07 12:50:00,68.7,68.4,30.11,ENE,76,1.0,5.0,99,0.00,,,0.55,Wunderground v.1.15,2013-08-07 16:50:00,
2013-08-07 12:55:00,68.8,68.5,30.11,East,83,1.0,5.0,99,0.00,,,0.55,Wunderground v.1.15,2013-08-07 16:55:00,
2013-08-07 13:05:00,68.8,68.5,30.11,NNW,327,0.0,5.0,99,0.00,,,0.55,Wunderground v.1.15,2013-08-07 17:05:00,
2013-08-07 13:10:00,68.8,68.5,30.11,WSW,257,1.0,5.0,99,0.00,,,0.55,Wunderground v.1.15,2013-08-07 17:10:00,
2013-08-07 13:15:00,68.9,68.6,30.11,West,259,0.0,5.0,99,0.00,,,0.55,Wunderground v.1.15,2013-08-07 17:15:00,
2013-08-07 13:20:00,68.9,68.6,30.11,WSW,254,0.0,5.0,99,0.00,,,0.55,Wunderground v.1.15,2013-08-07 17:20:00,
2013-08-07 13:25:00,68.8,68.5,30.11,South,174,0.0,5.0,99,0.00,,,0.55,Wunderground v.1.15,2013-08-07 17:25:00,
2013-08-07 13:30:00,68.7,68.4,30.11,South,176,0.0,5.0,99,0.00,,,0.55,Wunderground v.1.15,2013-08-07 17:30:00,
2013-08-07 13:40:00,68.5,68.2,30.11,South,175,1.0,5.0,99,0.56,,,0.58,Wunderground v.1.15,2013-08-07 17:40:00,
2013-08-07 13:45:00,68.3,68.0,30.12,SW,231,1.0,5.0,99,0.70,,,0.63,Wunderground v.1.15,2013-08-07 17:45:00,
2013-08-07 13:50:00,67.7,67.4,30.11,WSW,238,1.0,5.0,99,0.61,,,0.71,Wunderground v.1.15,2013-08-07 17:50:00,
2013-08-07 13:55:00,67.4,67.1,30.12,South,171,2.0,2.0,99,0.51,,,0.75,Wunderground v.1.15,2013-08-07 17:55:00,
2013-08-07 14:05:00,67.2,66.9,30.11,SSE,167,1.0,1.0,99,0.46,,,0.79,Wunderground v.1.15,2013-08-07 18:05:00,
2013-08-07 14:10:00,67.2,66.9,30.11,SSE,167,0.0,5.0,99,0.26,,,0.82,Wunderground v.1.15,2013-08-07 18:10:00,
2013-08-07 14:15:00,67.2,66.9,30.11,SSE,167,0.0,5.0,99,0.23,,,0.84,Wunderground v.1.15,2013-08-07 18:15:00,
2013-08-07 14:20:00,67.2,66.9,30.11,SSE,165,0.0,5.0,99,0.18,,,0.86,Wunderground v.1.15,2013-08-07 18:20:00,
2013-08-07 14:25:00,67.3,67.0,30.11,SSE,165,1.0,1.0,99,0.22,,,0.87,Wunderground v.1.15,2013-08-07 18:25:00,
2013-08-07 14:30:00,67.3,67.0,30.11,SSE,165,0.0,5.0,99,0.16,,,0.89,Wunderground v.1.15,2013-08-07 18:30:00,
2013-08-07 14:35:00,67.3,67.0,30.11,WNW,283,0.0,5.0,99,0.11,,,0.89,Wunderground v.1.15,2013-08-07 18:35:00,
2013-08-07 14:40:00,67.4,67.1,30.11,South,187,0.0,5.0,99,0.09,,,0.90,Wunderground v.1.15,2013-08-07 18:40:00,
2013-08-07 14:45:00,67.4,67.1,30.11,South,187,1.0,5.0,99,0.07,,,0.90,Wunderground v.1.15,2013-08-07 18:45:00,
2013-08-07 14:50:00,67.4,67.1,30.11,South,187,0.0,5.0,99,0.05,,,0.91,Wunderground v.1.15,2013-08-07 18:50:00,
2013-08-07 14:55:00,67.5,67.2,30.11,South,187,0.0,5.0,99,0.05,,,0.91,Wunderground v.1.15,2013-08-07 18:55:00,
2013-08-07 15:05:00,67.7,67.4,30.11,South,186,0.0,5.0,99,0.04,,,0.91,Wunderground v.1.15,2013-08-07 19:05:00,
2013-08-07 15:10:00,67.7,67.4,30.10,SSE,161,1.0,5.0,99,0.00,,,0.91,Wunderground v.1.15,2013-08-07 19:10:00,
2013-08-07 15:15:00,67.7,67.4,30.10,SSE,161,1.0,1.0,99,0.00,,,0.92,Wunderground v.1.15,2013-08-07 19:15:00,
2013-08-07 15:20:00,68.0,67.7,30.10,SSE,161,0.0,5.0,99,0.00,,,0.92,Wunderground v.1.15,2013-08-07 19:20:00,
2013-08-07 15:25:00,68.1,67.8,30.10,SSE,161,0.0,5.0,99,0.07,,,0.93,Wunderground v.1.15,2013-08-07 19:25:00,
2013-08-07 15:30:00,68.3,68.0,30.10,SSE,156,0.0,5.0,99,0.06,,,0.93,Wunderground v.1.15,2013-08-07 19:30:00,
2013-08-07 15:40:00,68.6,68.3,30.09,SSE,156,0.0,5.0,99,0.00,,,0.93,Wunderground v.1.15,2013-08-07 19:40:00,
2013-08-07 15:45:00,68.7,68.4,30.09,SSE,157,0.0,5.0,99,0.00,,,0.93,Wunderground v.1.15,2013-08-07 19:45:00,
2013-08-07 15:55:00,68.8,68.5,30.09,SE,138,0.0,5.0,99,0.00,,,0.94,Wunderground v.1.15,2013-08-07 19:55:00,
2013-08-07 16:05:00,68.5,68.2,30.09,SSE,149,0.0,5.0,99,0.00,,,0.94,Wunderground v.1.15,2013-08-07 20:05:00,
2013-08-07 16:10:00,68.5,68.2,30.09,SSE,149,0.0,5.0,99,0.00,,,0.94,Wunderground v.1.15,2013-08-07 20:10:00,
2013-08-07 16:15:00,68.4,68.1,30.09,South,187,0.0,5.0,99,0.00,,,0.94,Wunderground v.1.15,2013-08-07 20:15:00,
2013-08-07 16:25:00,68.4,68.1,30.09,SSE,161,0.0,5.0,99,0.00,,,0.94,Wunderground v.1.15,2013-08-07 20:25:00,
2013-08-07 16:30:00,68.3,68.0,30.09,SSE,161,0.0,5.0,99,0.00,,,0.94,Wunderground v.1.15,2013-08-07 20:30:00,
2013-08-07 16:35:00,68.3,68.0,30.10,SSE,161,0.0,5.0,99,0.00,,,0.94,Wunderground v.1.15,2013-08-07 20:35:00,
2013-08-07 16:40:00,68.3,68.0,30.10,SSE,161,0.0,5.0,99,0.00,,,0.94,Wunderground v.1.15,2013-08-07 20:40:00,
2013-08-07 16:45:00,68.1,67.8,30.10,SSE,161,0.0,5.0,99,0.00,,,0.95,Wunderground v.1.15,2013-08-07 20:45:00,
2013-08-07 16:50:00,68.1,67.8,30.10,SSE,165,0.0,5.0,99,0.00,,,0.95,Wunderground v.1.15,2013-08-07 20:50:00,
2013-08-07 16:55:00,68.0,67.7,30.10,SSE,165,1.0,5.0,99,0.00,,,0.95,Wunderground v.1.15,2013-08-07 20:55:00,
2013-08-07 17:05:00,67.8,67.5,30.09,South,183,1.0,1.0,99,0.21,,,0.98,Wunderground v.1.15,2013-08-07 21:05:00,
2013-08-07 17:15:00,67.6,67.3,30.09,SSW,198,0.0,5.0,99,0.09,,,1.00,Wunderground v.1.15,2013-08-07 21:15:00,
2013-08-07 17:20:00,67.5,67.2,30.09,SSE,165,0.0,5.0,99,0.09,,,1.00,Wunderground v.1.15,2013-08-07 21:20:00,
2013-08-07 17:25:00,67.6,67.3,30.09,SSE,157,1.0,1.0,99,0.05,,,1.00,Wunderground v.1.15,2013-08-07 21:25:00,
2013-08-07 17:30:00,67.5,67.2,30.09,SW,221,1.0,5.0,99,0.05,,,1.01,Wunderground v.1.15,2013-08-07 21:30:00,
2013-08-07 17:35:00,67.5,67.2,30.09,SSW,207,0.0,5.0,99,0.05,,,1.01,Wunderground v.1.15,2013-08-07 21:35:00,
2013-08-07 17:40:00,67.4,67.1,30.09,SSE,154,1.0,5.0,99,0.04,,,1.01,Wunderground v.1.15,2013-08-07 21:40:00,
2013-08-07 17:45:00,67.4,67.1,30.09,SSE,160,1.0,5.0,99,0.00,,,1.01,Wunderground v.1.15,2013-08-07 21:45:00,
2013-08-07 17:50:00,67.5,67.2,30.09,SSW,198,1.0,5.0,99,0.00,,,1.01,Wunderground v.1.15,2013-08-07 21:50:00,
2013-08-07 17:55:00,67.6,67.3,30.09,SSW,198,0.0,5.0,99,0.00,,,1.02,Wunderground v.1.15,2013-08-07 21:55:00,
2013-08-07 18:05:00,68.0,67.7,30.09,ESE,122,0.0,5.0,99,0.00,,,1.02,Wunderground v.1.15,2013-08-07 22:05:00,
2013-08-07 18:10:00,68.2,67.9,30.09,SSE,149,0.0,5.0,99,0.00,,,1.02,Wunderground v.1.15,2013-08-07 22:10:00,
2013-08-07 18:15:00,68.5,68.2,30.09,South,171,0.0,5.0,99,0.00,,,1.02,Wunderground v.1.15,2013-08-07 22:15:00,
2013-08-07 18:20:00,69.0,68.7,30.09,South,188,1.0,5.0,99,0.00,,,1.02,Wunderground v.1.15,2013-08-07 22:20:00,
2013-08-07 18:25:00,68.9,68.6,30.09,South,188,1.0,5.0,99,0.00,,,1.02,Wunderground v.1.15,2013-08-07 22:25:00,
2013-08-07 18:30:00,68.8,68.5,30.09,South,188,1.0,5.0,99,0.00,,,1.02,Wunderground v.1.15,2013-08-07 22:30:00,
2013-08-07 18:35:00,68.8,68.5,30.08,NW,306,1.0,1.0,99,0.00,,,1.02,Wunderground v.1.15,2013-08-07 22:35:00,
2013-08-07 18:40:00,68.7,68.4,30.08,SSE,154,1.0,5.0,99,0.00,,,1.02,Wunderground v.1.15,2013-08-07 22:40:00,
2013-08-07 18:45:00,68.7,68.4,30.08,SSE,157,1.0,5.0,99,0.00,,,1.02,Wunderground v.1.15,2013-08-07 22:45:00,
2013-08-07 18:55:00,68.5,68.2,30.08,SW,219,1.0,5.0,99,0.00,,,1.02,Wunderground v.1.15,2013-08-07 22:55:00,
2013-08-07 19:05:00,68.3,68.0,30.08,South,175,1.0,1.0,99,0.00,,,1.02,Wunderground v.1.15,2013-08-07 23:05:00,
2013-08-07 19:10:00,68.2,67.9,30.08,South,185,1.0,5.0,99,0.00,,,1.02,Wunderground v.1.15,2013-08-07 23:10:00,
2013-08-07 19:15:00,68.2,67.9,30.08,South,170,1.0,1.0,99,0.00,,,1.02,Wunderground v.1.15,2013-08-07 23:15:00,
2013-08-07 19:20:00,68.2,67.9,30.08,SSE,167,1.0,5.0,99,0.00,,,1.02,Wunderground v.1.15,2013-08-07 23:20:00,
2013-08-07 19:25:00,68.1,67.8,30.09,South,169,1.0,5.0,99,0.00,,,1.02,Wunderground v.1.15,2013-08-07 23:25:00,
2013-08-07 19:30:00,68.1,67.8,30.09,South,169,1.0,5.0,99,0.00,,,1.02,Wunderground v.1.15,2013-08-07 23:30:00,
2013-08-07 19:35:00,68.1,67.8,30.09,South,182,1.0,1.0,99,0.00,,,1.02,Wunderground v.1.15,2013-08-07 23:35:00,
2013-08-07 19:40:00,68.1,67.8,30.09,SSW,213,1.0,5.0,99,0.00,,,1.02,Wunderground v.1.15,2013-08-07 23:40:00,
2013-08-07 19:45:00,68.1,67.8,30.09,SSE,165,1.0,5.0,99,0.00,,,1.02,Wunderground v.1.15,2013-08-07 23:45:00,
2013-08-07 19:50:00,68.1,67.8,30.09,SSE,155,1.0,5.0,99,0.00,,,1.02,Wunderground v.1.15,2013-08-07 23:50:00,
2013-08-07 19:55:00,68.1,67.8,30.09,SSW,209,0.0,5.0,99,0.00,,,1.02,Wunderground v.1.15,2013-08-07 23:55:00,
2013-08-07 20:05:00,67.7,67.1,30.09,SSE,161,1.0,1.0,98,0.00,,,1.02,Wunderground v.1.15,2013-08-08 00:05:00,
2013-08-07 20:10:00,67.7,67.1,30.09,South,177,0.0,5.0,98,0.00,,,1.02,Wunderground v.1.15,2013-08-08 00:10:00,
2013-08-07 20:15:00,67.6,67.0,30.09,SSE,163,0.0,5.0,98,0.00,,,1.02,Wunderground v.1.15,2013-08-08 00:15:00,
2013-08-07 20:20:00,67.6,67.0,30.09,SE,140,0.0,5.0,98,0.00,,,1.02,Wunderground v.1.15,2013-08-08 00:20:00,
2013-08-07 20:25:00,67.6,67.0,30.09,South,180,1.0,5.0,98,0.00,,,1.02,Wunderground v.1.15,2013-08-08 00:25:00,
2013-08-07 20:30:00,67.6,67.0,30.09,South,173,1.0,5.0,98,0.00,,,1.02,Wunderground v.1.15,2013-08-08 00:30:00,
2013-08-07 20:35:00,67.6,67.0,30.09,SSW,196,1.0,5.0,98,0.00,,,1.02,Wunderground v.1.15,2013-08-08 00:35:00,
2013-08-07 20:40:00,67.6,67.0,30.09,SW,216,1.0,5.0,98,0.00,,,1.02,Wunderground v.1.15,2013-08-08 00:40:00,
2013-08-07 20:45:00,67.6,67.0,30.09,SSW,212,0.0,5.0,98,0.00,,,1.02,Wunderground v.1.15,2013-08-08 00:45:00,
2013-08-07 20:50:00,67.6,67.0,30.09,South,173,1.0,5.0,98,0.00,,,1.02,Wunderground v.1.15,2013-08-08 00:50:00,
2013-08-07 20:55:00,67.6,67.0,30.09,South,185,1.0,1.0,98,0.00,,,1.02,Wunderground v.1.15,2013-08-08 00:55:00,
2013-08-07 21:05:00,67.5,66.9,30.09,SSW,207,0.0,5.0,98,0.00,,,1.02,Wunderground v.1.15,2013-08-08 01:05:00,
2013-08-07 21:10:00,67.6,67.0,30.09,WSW,242,0.0,5.0,98,0.00,,,1.02,Wunderground v.1.15,2013-08-08 01:10:00,
2013-08-07 21:15:00,67.6,67.0,30.09,SW,217,0.0,5.0,98,0.00,,,1.02,Wunderground v.1.15,2013-08-08 01:15:00,
2013-08-07 21:20:00,67.5,66.9,30.09,SE,135,1.0,5.0,98,0.00,,,1.02,Wunderground v.1.15,2013-08-08 01:20:00,
2013-08-07 21:25:00,67.6,67.3,30.09,South,173,1.0,5.0,99,0.00,,,1.02,Wunderground v.1.15,2013-08-08 01:25:00,
2013-08-07 21:30:00,67.6,67.0,30.10,SSE,149,1.0,5.0,98,0.00,,,1.02,Wunderground v.1.15,2013-08-08 01:30:00,
2013-08-07 21:35:00,67.5,67.2,30.10,SSW,203,1.0,5.0,99,0.00,,,1.02,Wunderground v.1.15,2013-08-08 01:35:00,
2013-08-07 21:40:00,67.4,66.8,30.10,East,90,1.0,5.0,98,0.00,,,1.02,Wunderground v.1.15,2013-08-08 01:40:00,
2013-08-07 21:45:00,67.3,66.7,30.10,SSE,156,1.0,1.0,98,0.00,,,1.02,Wunderground v.1.15,2013-08-08 01:45:00,
2013-08-07 21:55:00,67.1,66.5,30.10,SSE,167,1.0,5.0,98,0.00,,,1.02,Wunderground v.1.15,2013-08-08 01:55:00,
2013-08-07 22:05:00,67.0,66.4,30.10,South,186,1.0,5.0,98,0.00,,,1.02,Wunderground v.1.15,2013-08-08 02:05:00,
2013-08-07 22:10:00,67.0,66.4,30.10,South,184,1.0,5.0,98,0.00,,,1.02,Wunderground v.1.15,2013-08-08 02:10:00,
2013-08-07 22:15:00,67.0,66.4,30.11,South,182,1.0,5.0,98,0.00,,,1.02,Wunderground v.1.15,2013-08-08 02:15:00,
2013-08-07 22:20:00,67.0,66.4,30.11,SSE,162,1.0,5.0,98,0.00,,,1.02,Wunderground v.1.15,2013-08-08 02:20:00,
2013-08-07 22:25:00,67.0,66.4,30.11,SSE,163,1.0,1.0,98,0.00,,,1.02,Wunderground v.1.15,2013-08-08 02:25:00,
2013-08-07 22:30:00,67.0,66.4,30.11,SSE,158,1.0,5.0,98,0.00,,,1.02,Wunderground v.1.15,2013-08-08 02:30:00,
2013-08-07 22:35:00,66.9,66.3,30.11,West,263,1.0,5.0,98,0.00,,,1.02,Wunderground v.1.15,2013-08-08 02:35:00,
2013-08-07 22:45:00,66.9,66.3,30.11,SSE,161,1.0,5.0,98,0.00,,,1.02,Wunderground v.1.15,2013-08-08 02:45:00,
2013-08-07 22:50:00,66.9,66.3,30.11,SSE,154,1.0,5.0,98,0.00,,,1.02,Wunderground v.1.15,2013-08-08 02:50:00,
2013-08-07 22:55:00,66.9,66.3,30.12,SSE,151,1.0,1.0,98,0.00,,,1.02,Wunderground v.1.15,2013-08-08 02:55:00,
2013-08-07 23:05:00,66.9,66.3,30.12,South,172,0.0,5.0,98,0.00,,,1.02,Wunderground v.1.15,2013-08-08 03:05:00,
2013-08-07 23:10:00,66.8,66.2,30.12,SSE,154,0.0,5.0,98,0.00,,,1.02,Wunderground v.1.15,2013-08-08 03:10:00,
2013-08-07 23:15:00,66.8,66.2,30.11,SSE,148,0.0,5.0,98,0.00,,,1.02,Wunderground v.1.15,2013-08-08 03:15:00,
2013-08-07 23:20:00,66.8,66.2,30.11,SSE,168,0.0,5.0,98,0.00,,,1.02,Wunderground v.1.15,2013-08-08 03:20:00,
2013-08-07 23:30:00,66.8,66.2,30.11,ESE,106,0.0,5.0,98,0.00,,,1.02,Wunderground v.1.15,2013-08-08 03:30:00,
2013-08-07 23:35:00,66.8,66.2,30.11,South,175,1.0,5.0,98,0.00,,,1.02,Wunderground v.1.15,2013-08-08 03:35:00,
2013-08-07 23:40:00,66.7,66.1,30.11,SSE,154,1.0,5.0,98,0.00,,,1.02,Wunderground v.1.15,2013-08-08 03:40:00,
2013-08-07 23:45:00,66.7,66.1,30.11,SSE,159,1.0,1.0,98,0.00,,,1.02,Wunderground v.1.15,2013-08-08 03:45:00,
2013-08-07 23:50:00,66.7,66.1,30.11,SSE,165,1.0,2.0,98,0.00,,,1.02,Wunderground v.1.15,2013-08-08 03:50:00,
2013-08-07 23:55:00,66.7,66.1,30.11,SSE,159,1.0,5.0,98,0.00,,,1.02,Wunderground v.1.15,2013-08-08 03:55:00,